SCP
0 0 0 0 0 0 0 0 0 0 0 0 0 0 0 0 0 0 0 0 0 0 0 0 0 0 0 0 0 0 0 0 0 0 0 0 0 0 0 0 1 1 0 0 0 0 0 0 0
0 0 0 0 0 0 0 0 0 0 0 0 0 0 0 0 0 0 0 0 0 0 0 0 0 0 0 0 0 0 0 0 0 0 0 0 0 0 0 0 0 0 0 0 0 0 0 0 0
0 0 0 0 0 0 0 0 0 0 0 0 0 0 0 0 0 0 0 0 0 0 0 0 0 0 0 0 0 0 0 0 0 0 0 0 0 0 0 0 0 0 0 0 0 0 0 0 0
0 0 0 0 0 0 0 0 0 0 0 0 0 0 0 0 0 0 0 0 0 0 0 0 0 0 0 0 0 0 0 0 0 0 0 0 0 0 0 0 0 0 0 0 0 0 0 0 0
0 0 0 0 0 0 0 0 0 0 0 0 0 0 0 0 0 0 0 0 0 0 0 0 0 0 0 0 0 0 0 0 0 0 0 0 0 0 0 0 0 0 0 0 0 0 0 0 0
0 0 0 0 0 0 0 0 0 0 0 0 0 0 0 0 0 0 0 0 0 0 0 0 0 0 0 0 0 0 0 0 0 0 0 0 0 0 0 0 0 0 0 0 0 0 0 0 0
0 0 0 0 0 0 0 0 0 0 0 0 0 0 0 0 0 0 0 0 0 0 0 0 0 0 0 0 0 0 0 0 0 0 0 0 0 0 0 0 0 0 0 0 0 0 0 0 0
0 0 0 0 0 0 0 0 0 0 0 0 0 0 0 0 0 0 0 0 0 0 -0 -0 -0 -0 0 0 0 0 0 0 0 0 0 0 0 0 0 0 0 0 0 0 0 0 0 0 0
0 0 0 0 0 0 0 0 0 0 0 0 0 0 0 0 0 0 0 0 0 0 -0 -0 -0 -0 -0 -0 0 0 0 0 0 0 0 0 0 0 0 0 0 0 0 0 0 0 0 0 0
0 0 0 0 0 0 0 0 0 0 0 0 0 0 0 0 0 0 0 0 0 0 -0 -0 0 0 0 -0 -0 0 0 0 0 0 0 0 0 0 0 0 0 0 0 0 0 0 0 0 0
0 0 0 0 0 0 0 0 0 0 0 0 0 0 0 0 0 0 0 0 0 0 0 0 0 0 0 -0 -0 -0 -0 0 0 0 0 0 0 0 0 0 0 0 0 0 0 0 0 0 0
0 0 0 0 0 0 0 0 0 0 0 0 0 0 0 0 0 0 0 0 0 0 0 0 0 -0 -0 -0 -0 -0 -0 -0 0 0 0 0 0 0 0 0 0 0 0 0 0 0 0 0 0
0 0 0 0 0 0 0 0 0 0 0 0 0 0 0 0 0 0 0 0 0 0 0 0 -0 -0 -0 -0 -0 -0 -0 -0 0 0 0 0 0 0 0 0 0 0 0 0 0 0 0 0 0
0 0 0 0 0 0 0 0 0 0 0 0 0 0 0 0 0 0 0 0 0 0 0 -0 -0 -0 -0 -0 -0 -0 -0 -0 0 0 0 0 0 0 0 0 0 0 0 1 1 1 0 0 0
0 0 0 0 0 0 0 0 0 0 0 0 0 0 0 0 0 0 0 0 0 0 -0 -0 -0 -0 -0 -0 -0 -0 -0 0 0 0 0 0 0 0 0 0 0 0 0 0 1 1 1 0 0
0 0 0 0 0 0 0 0 0 0 0 0 0 0 0 0 0 0 0 0 0 0 -0 -0 -0 -0 -0 -0 -0 -0 0 0 0 0 0 0 0 0 0 0 0 0 0 0 0 1 0 0 0
0 0 0 0 0 0 0 0 0 0 0 0 0 0 0 0 0 0 0 0 0 -0 -0 -0 -0 -0 0 0 0 0 0 0 0 0 0 0 0 0 0 0 0 0 0 0 0 0 1 0 0
0 0 0 0 0 0 0 0 0 0 0 0 0 0 0 0 0 0 0 0 0 -0 0 0 0 0 0 0 0 0 0 0 0 0 0 0 0 0 0 0 0 0 0 0 0 0 0 0 0
0 0 0 0 0 0 0 0 0 0 0 0 0 0 0 0 0 0 0 0 -0 -0 0 0 0 0 0 0 0 0 0 0 0 0 0 0 0 0 0 0 0 0 0 0 0 0 0 0 0
0 0 0 0 0 0 0 0 0 0 0 0 0 0 0 0 0 0 0 0 -0 0 0 0 0 0 0 0 0 0 0 0 0 0 0 0 0 0 0 0 0 0 0 0 0 0 0 0 0
0 0 0 0 0 0 0 0 0 0 0 0 0 0 0 0 0 0 0 0 0 0 0 0 0 0 0 0 0 0 0 0 0 0 0 0 0 0 0 0 0 0 0 0 0 0 0 0 0
0 0 0 0 0 0 0 0 0 0 0 0 0 0 0 0 0 0 0 0 0 0 0 0 0 0 0 0 0 0 0 0 0 0 0 0 0 0 0 0 0 0 0 0 0 0 0 1 0
0 0 0 0 0 0 0 0 0 0 0 0 0 0 0 0 0 0 0 0 0 0 0 0 0 0 0 0 0 0 0 0 0 0 0 0 0 0 0 0 0 0 0 0 0 0 0 0 0
0 0 0 0 0 0 0 0 0 0 0 0 0 0 0 0 0 0 0 0 0 0 0 0 0 0 0 0 0 0 0 0 0 0 0 0 0 0 0 0 0 0 0 0 0 0 0 0 0
0 0 0 0 0 0 0 0 0 0 0 0 0 0 0 0 0 0 0 0 0 0 0 0 0 0 0 0 0 0 0 0 0 0 0 0 0 0 0 0 0 0 0 0 0 0 0 0 0
0 0 0 0 0 0 0 0 0 0 0 0 0 0 0 0 0 0 0 0 0 0 0 0 0 0 0 0 0 0 0 0 0 0 0 0 0 0 0 0 0 0 0 0 0 0 0 0 0
0 0 0 0 0 0 0 0 0 0 0 0 0 0 0 0 0 0 0 0 0 0 0 0 0 0 0 0 0 0 0 0 0 0 0 0 0 0 0 0 0 0 0 0 0 0 0 0 0
0 0 0 0 0 0 0 0 0 0 0 0 0 0 0 0 0 0 0 0 0 0 0 0 0 0 0 0 0 0 -0 0 -0 -0 -0 0 0 0 0 0 0 0 0 0 0 0 0 0 0
0 0 0 0 0 0 0 0 0 0 0 0 0 0 0 0 0 0 0 0 0 0 0 0 0 0 0 0 0 0 -0 0 0 -0 -0 0 0 0 0 0 0 0 0 0 0 0 0 0 0
0 0 0 0 0 0 0 0 0 0 0 0 0 0 0 0 0 0 0 0 0 0 0 0 0 0 0 0 0 0 0 0 -0 0 0 -0 0 0 0 0 0 0 0 0 0 0 0 0 0
Wind_Speed_500mb
20 23 23 15 8 9 5 6 5 8 6 10 10 5 17 15 8 5 19 15 17 19 13 12 7 13 18 24 23 24 28 28 28 30 28 26 25 25 28 31 34 34 33 33 33 32 32 32 31
25 27 22 7 8 6 8 6 3 6 13 6 14 8 14 7 14 12 6 14 17 16 14 8 14 11 18 21 25 26 27 28 29 31 30 28 26 25 26 30 32 35 34 33 31 30 31 33 33
28 28 8 8 7 9 8 1 5 5 21 13 6 17 8 6 14 9 11 13 13 14 14 12 9 7 17 24 21 28 29 28 28 32 33 31 29 27 27 30 34 34 35 33 30 27 25 24 26
19 11 9 8 8 7 4 4 8 14 6 20 8 12 13 10 7 10 6 9 17 20 21 19 18 18 16 18 30 30 26 31 31 33 35 36 32 31 30 33 36 38 37 34 32 27 22 20 20
19 6 7 6 6 7 3 5 10 5 6 14 14 5 10 14 15 6 6 13 19 24 28 31 32 27 29 29 21 32 32 36 35 37 36 39 39 38 36 38 40 41 41 39 35 29 27 26 23
6 6 7 6 6 4 1 12 0 6 11 10 9 6 6 12 4 6 13 20 25 29 32 33 35 38 34 33 35 32 29 44 41 42 41 42 43 45 44 43 44 44 45 44 40 36 35 34 31
11 7 7 9 10 4 1 9 5 4 9 5 7 6 14 7 7 13 22 26 28 31 36 41 42 42 44 41 38 38 39 35 43 48 49 46 49 48 50 50 49 49 48 50 47 43 41 39 36
7 8 7 2 10 9 5 4 3 5 3 8 4 4 7 7 15 22 28 31 34 37 40 45 50 52 50 50 48 46 44 41 41 42 54 56 56 54 53 55 54 54 53 53 54 48 46 46 40
5 8 4 6 10 5 7 9 3 6 12 9 5 1 2 10 19 28 34 37 38 41 45 49 51 52 52 50 50 48 48 48 48 43 46 56 56 60 58 57 57 58 55 56 57 55 49 49 42
9 7 8 2 5 5 4 2 8 4 6 10 11 17 13 13 23 31 35 38 40 44 46 46 43 43 45 47 50 52 53 52 52 51 49 47 51 61 65 64 61 61 60 57 59 59 53 51 49
4 6 7 4 4 1 4 6 5 3 6 13 12 27 19 23 22 24 29 34 38 41 41 38 44 50 56 61 62 62 62 62 59 54 54 55 51 52 56 68 68 66 64 63 61 62 61 60 59
8 5 4 5 3 3 5 7 8 17 13 24 23 19 20 23 23 24 25 28 34 37 37 48 63 74 77 76 78 80 73 69 67 63 59 58 60 56 53 57 56 73 73 71 68 68 67 67 67
6 4 7 4 14 12 10 11 10 30 13 11 11 13 17 22 22 23 21 26 33 37 48 67 75 81 85 88 87 81 78 73 70 69 66 62 63 65 58 57 56 50 81 78 77 74 73 73 70
4 5 12 4 4 6 6 8 8 10 5 12 22 22 19 28 31 25 22 27 34 42 59 73 83 88 88 89 90 87 79 75 72 70 68 68 66 67 67 65 62 61 48 88 82 81 80 79 76
5 7 8 5 5 4 9 12 14 14 7 24 36 32 26 30 22 18 19 24 32 48 69 80 89 88 90 89 88 84 82 74 71 72 71 70 71 70 71 71 73 65 65 50 83 89 86 85 83
10 8 8 4 7 5 11 17 14 16 21 47 40 40 37 28 22 20 23 31 43 62 79 93 93 93 92 88 86 84 78 77 71 69 73 73 72 71 74 76 74 71 70 61 61 73 92 90 91
14 2 3 16 5 5 4 18 34 37 41 52 54 41 32 26 21 19 28 41 56 76 89 90 87 87 86 85 83 78 75 71 73 65 68 74 75 72 73 78 78 73 70 69 85 39 81 81 102
5 5 5 10 5 8 13 37 36 41 34 47 50 43 33 29 23 28 37 49 68 83 83 84 83 82 82 80 77 74 70 71 70 69 64 67 75 76 72 76 78 73 69 66 61 64 64 88 86
7 4 8 10 9 9 13 27 45 52 34 36 33 33 32 27 24 31 44 61 73 77 79 78 78 70 69 71 71 70 70 67 67 65 66 63 69 76 74 73 75 75 74 72 56 58 64 98 62
6 4 11 12 4 7 13 41 44 23 17 13 24 30 26 22 30 38 53 66 69 75 74 75 74 69 64 66 65 63 63 63 70 65 65 66 63 69 76 71 72 74 72 70 64 54 58 71 83
6 8 5 8 12 6 17 17 11 4 5 12 21 25 22 20 34 48 61 65 65 70 72 76 73 69 63 59 61 62 61 59 60 64 62 65 65 57 65 68 69 69 69 68 67 66 62 72 73
4 5 2 6 9 4 11 10 12 8 11 10 28 28 23 26 38 52 61 62 65 70 74 76 73 69 62 54 56 54 56 62 62 64 66 67 64 62 63 62 62 65 68 69 69 72 68 69 82
6 5 1 5 7 7 8 5 16 6 13 17 28 36 27 29 40 52 54 58 65 74 78 76 72 68 62 54 49 57 57 59 61 64 70 66 70 71 63 63 59 60 65 65 64 74 61 70 70
4 8 11 7 7 5 7 7 13 8 11 9 10 37 30 34 46 52 54 64 70 72 74 73 73 71 64 55 52 48 54 55 59 64 70 64 69 65 55 55 56 55 64 60 59 69 69 66 74
11 12 7 11 8 9 5 3 22 17 13 13 18 30 32 34 46 54 56 65 66 70 74 73 72 73 64 56 48 48 48 49 56 62 60 61 63 55 51 51 51 49 50 51 54 61 71 67 67
4 11 9 10 5 10 7 13 13 11 20 29 32 34 38 38 50 51 52 61 64 68 74 74 73 71 63 52 50 45 45 48 52 56 52 52 50 57 48 46 51 52 49 50 46 51 60 72 71
5 4 5 12 3 6 5 16 23 6 13 21 38 39 47 41 52 51 53 60 64 64 68 72 69 66 58 51 48 42 44 43 48 45 43 32 34 37 40 43 53 53 52 47 47 45 50 52 66
9 5 8 6 3 11 10 12 13 14 19 13 20 51 58 45 54 53 51 58 58 57 64 69 66 61 56 47 42 39 39 40 43 41 35 31 26 25 29 40 45 48 41 41 43 52 49 57 56
4 3 9 7 7 9 7 13 17 20 15 18 24 42 39 47 55 54 50 55 53 53 61 67 65 58 51 44 38 34 30 33 34 35 28 30 28 27 17 33 31 40 40 38 43 38 46 52 58
8 12 11 8 11 7 4 20 12 16 11 21 45 46 51 59 57 43 47 49 49 51 60 65 61 53 46 44 38 29 26 27 26 27 25 22 23 27 26 26 34 37 32 31 36 36 34 43 54
Wind_Direction_500mb
164 156 149 139 70 68 259 255 287 345 25 13 2 72 104 63 56 147 85 26 13 7 6 341 312 250 259 232 218 241 249 243 236 231 233 240 246 241 232 226 219 217 217 220 220 226 235 241 238
157 151 147 116 94 95 264 275 52 2 335 335 97 47 40 67 65 101 89 8 2 359 3 340 352 265 267 257 235 228 240 253 251 247 242 241 244 245 232 220 215 211 213 220 225 232 241 244 232
156 158 147 97 113 171 190 260 305 340 26 42 86 59 55 34 58 72 34 1 338 332 344 357 310 320 264 274 273 244 238 242 248 254 251 247 243 246 238 221 216 217 215 218 223 232 243 240 222
155 158 76 93 189 208 215 331 314 336 359 40 52 67 83 70 83 77 14 325 314 318 324 333 336 316 313 261 261 264 253 249 243 245 251 250 248 244 240 232 224 222 220 220 220 231 226 220 211
154 124 71 100 221 139 14 321 41 20 358 8 20 106 88 94 93 84 350 330 325 328 329 329 329 323 315 304 300 266 263 255 253 247 243 248 246 244 241 238 232 228 225 224 226 229 223 209 202
98 85 77 195 217 135 322 15 117 23 3 355 59 89 108 124 103 16 340 329 330 326 324 320 313 309 306 305 305 290 275 261 254 254 249 244 241 245 243 242 238 236 232 231 229 227 220 215 206
114 89 197 153 185 164 283 350 62 356 334 21 348 124 157 136 349 335 327 322 319 317 315 315 314 306 303 301 294 291 293 273 262 255 251 248 246 243 245 244 243 236 237 234 234 230 225 221 218
108 89 129 167 183 206 343 13 84 35 315 316 310 169 188 257 306 315 316 315 315 317 317 315 314 313 307 303 300 290 283 283 273 264 249 247 246 244 242 244 245 239 235 236 236 232 231 226 225
104 67 192 181 147 169 350 19 255 292 278 274 257 183 271 286 304 307 305 305 307 314 316 315 313 312 312 306 300 295 287 278 277 272 264 255 246 243 244 242 244 241 238 236 236 236 233 228 230
75 108 191 109 115 146 293 304 305 346 275 274 249 230 320 291 306 309 313 318 323 325 325 326 324 322 321 316 309 301 293 286 277 272 270 265 257 243 241 242 243 243 239 237 236 237 237 234 231
81 139 169 167 133 237 233 258 261 261 276 215 229 274 278 291 286 299 313 321 328 329 328 331 329 326 319 315 312 308 300 292 283 274 267 264 262 253 245 244 242 242 241 238 236 235 234 234 233
111 83 103 161 182 284 250 293 265 225 255 303 285 284 280 256 268 292 303 312 321 323 331 332 325 320 316 311 308 308 303 295 285 277 270 266 261 258 248 242 246 242 242 240 237 234 234 233 236
70 2 334 303 283 268 265 260 269 267 289 284 253 258 283 257 268 284 297 310 316 322 328 327 325 319 315 312 310 307 302 295 288 278 270 266 262 258 255 242 241 249 241 242 241 237 235 236 236
23 326 307 293 298 283 286 273 313 226 212 309 285 276 267 253 263 262 279 297 311 314 320 322 320 315 312 310 309 306 302 296 289 279 269 264 261 259 255 254 246 244 248 245 242 242 239 237 237
29 40 358 13 341 345 334 289 222 211 283 304 299 276 274 281 245 256 281 299 309 313 317 319 318 314 311 308 305 302 300 295 288 283 273 261 259 256 255 254 250 242 240 246 244 239 243 241 237
42 49 14 317 347 26 64 277 269 258 296 307 294 289 279 259 244 264 288 305 312 315 316 317 314 311 311 308 303 299 297 294 288 283 279 268 258 257 254 252 251 250 248 240 238 247 245 240 238
18 222 330 321 1 263 176 272 268 285 300 296 294 281 258 230 239 264 292 304 312 317 316 314 313 311 307 303 301 298 294 289 287 284 281 276 264 258 256 252 250 250 249 247 245 239 243 227 231
265 0 277 251 292 357 281 270 280 287 296 280 276 269 228 229 246 275 294 307 314 315 315 315 314 311 306 302 301 300 293 289 286 283 280 279 271 259 257 254 251 248 248 250 249 249 240 232 236
136 214 248 259 284 306 254 278 283 297 290 275 259 225 220 237 270 296 306 316 317 320 318 317 313 309 304 302 302 302 302 294 287 284 283 280 275 262 254 253 250 245 245 245 242 239 237 242 225
122 133 271 284 309 341 298 292 289 281 265 248 211 200 217 257 277 296 316 321 324 322 322 322 318 314 308 303 302 299 297 293 292 290 288 288 278 266 254 252 249 244 244 244 236 235 237 235 227
219 179 239 249 329 283 321 295 325 337 271 238 214 214 231 286 311 318 324 327 328 328 326 324 320 316 311 304 300 296 292 291 292 291 293 294 288 271 259 252 249 245 239 241 234 227 230 230 222
301 174 317 302 40 295 31 284 300 302 290 229 218 224 250 292 312 322 329 332 335 333 332 328 323 318 312 306 297 294 287 285 290 294 291 289 287 277 260 251 244 243 234 235 233 228 227 228 219
210 18 353 88 93 37 339 60 273 331 281 251 234 235 258 298 316 323 328 331 333 337 333 329 325 321 313 305 296 296 292 288 290 291 293 289 285 281 263 248 238 239 230 233 234 230 225 227 225
18 56 40 55 88 23 258 117 276 235 217 287 269 236 263 299 318 323 329 328 331 333 331 332 329 325 317 308 299 294 294 290 288 290 290 285 292 281 263 242 237 236 227 231 237 231 231 229 232
61 49 335 352 7 227 312 322 249 261 251 231 251 254 270 297 315 324 325 325 329 332 334 333 331 325 321 312 302 298 292 288 286 287 288 291 286 278 259 232 234 221 221 233 236 234 229 232 232
65 142 148 241 277 274 352 238 250 235 282 272 258 261 274 294 321 316 320 323 327 330 333 332 331 326 322 314 307 301 295 284 285 287 285 285 288 271 252 228 225 228 231 223 231 238 234 232 236
255 56 164 98 89 23 245 288 288 296 288 260 255 261 270 288 320 313 314 322 325 327 333 332 330 325 323 317 310 305 296 290 288 286 277 282 278 253 242 224 224 220 219 228 234 237 238 238 239
135 155 52 11 324 291 282 278 239 291 274 282 265 259 267 289 313 317 316 321 323 328 334 334 332 327 324 320 315 308 301 292 288 287 273 277 280 250 238 224 216 215 218 233 240 236 243 237 236
116 12 52 123 158 197 293 255 215 237 238 259 277 285 269 298 312 314 318 319 324 328 338 336 335 331 327 324 320 312 305 299 292 286 282 272 267 255 223 208 222 236 236 240 243 250 242 242 244
164 185 156 138 253 231 194 269 221 230 249 271 279 289 288 303 313 313 314 321 329 334 341 340 338 335 334 329 324 322 315 313 302 294 285 277 264 247 227 231 227 237 234 235 241 249 251 243 242
Wind_Speed_850mb
20 23 23 15 8 9 5 6 5 8 6 10 10 5 17 15 8 5 19 15 17 19 13 12 7 13 18 24 23 24 28 28 28 30 28 26 25 25 28 31 34 34 33 33 33 32 32 32 31
25 27 22 7 8 6 8 6 3 6 13 6 14 8 14 7 14 12 6 14 17 16 14 8 14 11 18 21 25 26 27 28 29 31 30 28 26 25 26 30 32 35 34 33 31 30 31 33 33
28 28 8 8 7 9 8 1 5 5 21 13 6 17 8 6 14 9 11 13 13 14 14 12 9 7 17 24 21 28 29 28 28 32 33 31 29 27 27 30 34 34 35 33 30 27 25 24 26
19 11 9 8 8 7 4 4 8 14 6 20 8 12 13 10 7 10 6 9 17 20 21 19 18 18 16 18 30 30 26 31 31 33 35 36 32 31 30 33 36 38 37 34 32 27 22 20 20
19 6 7 6 6 7 3 5 10 5 6 14 14 5 10 14 15 6 6 13 19 24 28 31 32 27 29 29 21 32 32 36 35 37 36 39 39 38 36 38 40 41 41 39 35 29 27 26 23
6 6 7 6 6 4 1 12 0 6 11 10 9 6 6 12 4 6 13 20 25 29 32 33 35 38 34 33 35 32 29 44 41 42 41 42 43 45 44 43 44 44 45 44 40 36 35 34 31
11 7 7 9 10 4 1 9 5 4 9 5 7 6 14 7 7 13 22 26 28 31 36 41 42 42 44 41 38 38 39 35 43 48 49 46 49 48 50 50 49 49 48 50 47 43 41 39 36
7 8 7 2 10 9 5 4 3 5 3 8 4 4 7 7 15 22 28 31 34 37 40 45 50 52 50 50 48 46 44 41 41 42 54 56 56 54 53 55 54 54 53 53 54 48 46 46 40
5 8 4 6 10 5 7 9 3 6 12 9 5 1 2 10 19 28 34 37 38 41 45 49 51 52 52 50 50 48 48 48 48 43 46 56 56 60 58 57 57 58 55 56 57 55 49 49 42
9 7 8 2 5 5 4 2 8 4 6 10 11 17 13 13 23 31 35 38 40 44 46 46 43 43 45 47 50 52 53 52 52 51 49 47 51 61 65 64 61 61 60 57 59 59 53 51 49
4 6 7 4 4 1 4 6 5 3 6 13 12 27 19 23 22 24 29 34 38 41 41 38 44 50 56 61 62 62 62 62 59 54 54 55 51 52 56 68 68 66 64 63 61 62 61 60 59
8 5 4 5 3 3 5 7 8 17 13 24 23 19 20 23 23 24 25 28 34 37 37 48 63 74 77 76 78 80 73 69 67 63 59 58 60 56 53 57 56 73 73 71 68 68 67 67 67
6 4 7 4 14 12 10 11 10 30 13 11 11 13 17 22 22 23 21 26 33 37 48 67 75 81 85 88 87 81 78 73 70 69 66 62 63 65 58 57 56 50 81 78 77 74 73 73 70
4 5 12 4 4 6 6 8 8 10 5 12 22 22 19 28 31 25 22 27 34 42 59 73 83 88 88 89 90 87 79 75 72 70 68 68 66 67 67 65 62 61 48 88 82 81 80 79 76
5 7 8 5 5 4 9 12 14 14 7 24 36 32 26 30 22 18 19 24 32 48 69 80 89 88 90 89 88 84 82 74 71 72 71 70 71 70 71 71 73 65 65 50 83 89 86 85 83
10 8 8 4 7 5 11 17 14 16 21 47 40 40 37 28 22 20 23 31 43 62 79 93 93 93 92 88 86 84 78 77 71 69 73 73 72 71 74 76 74 71 70 61 61 73 92 90 91
14 2 3 16 5 5 4 18 34 37 41 52 54 41 32 26 21 19 28 41 56 76 89 90 87 87 86 85 83 78 75 71 73 65 68 74 75 72 73 78 78 73 70 69 85 39 81 81 102
5 5 5 10 5 8 13 37 36 41 34 47 50 43 33 29 23 28 37 49 68 83 83 84 83 82 82 80 77 74 70 71 70 69 64 67 75 76 72 76 78 73 69 66 61 64 64 88 86
7 4 8 10 9 9 13 27 45 52 34 36 33 33 32 27 24 31 44 61 73 77 79 78 78 70 69 71 71 70 70 67 67 65 66 63 69 76 74 73 75 75 74 72 56 58 64 98 62
6 4 11 12 4 7 13 41 44 23 17 13 24 30 26 22 30 38 53 66 69 75 74 75 74 69 64 66 65 63 63 63 70 65 65 66 63 69 76 71 72 74 72 70 64 54 58 71 83
6 8 5 8 12 6 17 17 11 4 5 12 21 25 22 20 34 48 61 65 65 70 72 76 73 69 63 59 61 62 61 59 60 64 62 65 65 57 65 68 69 69 69 68 67 66 62 72 73
4 5 2 6 9 4 11 10 12 8 11 10 28 28 23 26 38 52 61 62 65 70 74 76 73 69 62 54 56 54 56 62 62 64 66 67 64 62 63 62 62 65 68 69 69 72 68 69 82
6 5 1 5 7 7 8 5 16 6 13 17 28 36 27 29 40 52 54 58 65 74 78 76 72 68 62 54 49 57 57 59 61 64 70 66 70 71 63 63 59 60 65 65 64 74 61 70 70
4 8 11 7 7 5 7 7 13 8 11 9 10 37 30 34 46 52 54 64 70 72 74 73 73 71 64 55 52 48 54 55 59 64 70 64 69 65 55 55 56 55 64 60 59 69 69 66 74
11 12 7 11 8 9 5 3 22 17 13 13 18 30 32 34 46 54 56 65 66 70 74 73 72 73 64 56 48 48 48 49 56 62 60 61 63 55 51 51 51 49 50 51 54 61 71 67 67
4 11 9 10 5 10 7 13 13 11 20 29 32 34 38 38 50 51 52 61 64 68 74 74 73 71 63 52 50 45 45 48 52 56 52 52 50 57 48 46 51 52 49 50 46 51 60 72 71
5 4 5 12 3 6 5 16 23 6 13 21 38 39 47 41 52 51 53 60 64 64 68 72 69 66 58 51 48 42 44 43 48 45 43 32 34 37 40 43 53 53 52 47 47 45 50 52 66
9 5 8 6 3 11 10 12 13 14 19 13 20 51 58 45 54 53 51 58 58 57 64 69 66 61 56 47 42 39 39 40 43 41 35 31 26 25 29 40 45 48 41 41 43 52 49 57 56
4 3 9 7 7 9 7 13 17 20 15 18 24 42 39 47 55 54 50 55 53 53 61 67 65 58 51 44 38 34 30 33 34 35 28 30 28 27 17 33 31 40 40 38 43 38 46 52 58
8 12 11 8 11 7 4 20 12 16 11 21 45 46 51 59 57 43 47 49 49 51 60 65 61 53 46 44 38 29 26 27 26 27 25 22 23 27 26 26 34 37 32 31 36 36 34 43 54
Wind_Direction_850mb
164 156 149 139 70 68 259 255 287 345 25 13 2 72 104 63 56 147 85 26 13 7 6 341 312 250 259 232 218 241 249 243 236 231 233 240 246 241 232 226 219 217 217 220 220 226 235 241 238
157 151 147 116 94 95 264 275 52 2 335 335 97 47 40 67 65 101 89 8 2 359 3 340 352 265 267 257 235 228 240 253 251 247 242 241 244 245 232 220 215 211 213 220 225 232 241 244 232
156 158 147 97 113 171 190 260 305 340 26 42 86 59 55 34 58 72 34 1 338 332 344 357 310 320 264 274 273 244 238 242 248 254 251 247 243 246 238 221 216 217 215 218 223 232 243 240 222
155 158 76 93 189 208 215 331 314 336 359 40 52 67 83 70 83 77 14 325 314 318 324 333 336 316 313 261 261 264 253 249 243 245 251 250 248 244 240 232 224 222 220 220 220 231 226 220 211
154 124 71 100 221 139 14 321 41 20 358 8 20 106 88 94 93 84 350 330 325 328 329 329 329 323 315 304 300 266 263 255 253 247 243 248 246 244 241 238 232 228 225 224 226 229 223 209 202
98 85 77 195 217 135 322 15 117 23 3 355 59 89 108 124 103 16 340 329 330 326 324 320 313 309 306 305 305 290 275 261 254 254 249 244 241 245 243 242 238 236 232 231 229 227 220 215 206
114 89 197 153 185 164 283 350 62 356 334 21 348 124 157 136 349 335 327 322 319 317 315 315 314 306 303 301 294 291 293 273 262 255 251 248 246 243 245 244 243 236 237 234 234 230 225 221 218
108 89 129 167 183 206 343 13 84 35 315 316 310 169 188 257 306 315 316 315 315 317 317 315 314 313 307 303 300 290 283 283 273 264 249 247 246 244 242 244 245 239 235 236 236 232 231 226 225
104 67 192 181 147 169 350 19 255 292 278 274 257 183 271 286 304 307 305 305 307 314 316 315 313 312 312 306 300 295 287 278 277 272 264 255 246 243 244 242 244 241 238 236 236 236 233 228 230
75 108 191 109 115 146 293 304 305 346 275 274 249 230 320 291 306 309 313 318 323 325 325 326 324 322 321 316 309 301 293 286 277 272 270 265 257 243 241 242 243 243 239 237 236 237 237 234 231
81 139 169 167 133 237 233 258 261 261 276 215 229 274 278 291 286 299 313 321 328 329 328 331 329 326 319 315 312 308 300 292 283 274 267 264 262 253 245 244 242 242 241 238 236 235 234 234 233
111 83 103 161 182 284 250 293 265 225 255 303 285 284 280 256 268 292 303 312 321 323 331 332 325 320 316 311 308 308 303 295 285 277 270 266 261 258 248 242 246 242 242 240 237 234 234 233 236
70 2 334 303 283 268 265 260 269 267 289 284 253 258 283 257 268 284 297 310 316 322 328 327 325 319 315 312 310 307 302 295 288 278 270 266 262 258 255 242 241 249 241 242 241 237 235 236 236
23 326 307 293 298 283 286 273 313 226 212 309 285 276 267 253 263 262 279 297 311 314 320 322 320 315 312 310 309 306 302 296 289 279 269 264 261 259 255 254 246 244 248 245 242 242 239 237 237
29 40 358 13 341 345 334 289 222 211 283 304 299 276 274 281 245 256 281 299 309 313 317 319 318 314 311 308 305 302 300 295 288 283 273 261 259 256 255 254 250 242 240 246 244 239 243 241 237
42 49 14 317 347 26 64 277 269 258 296 307 294 289 279 259 244 264 288 305 312 315 316 317 314 311 311 308 303 299 297 294 288 283 279 268 258 257 254 252 251 250 248 240 238 247 245 240 238
18 222 330 321 1 263 176 272 268 285 300 296 294 281 258 230 239 264 292 304 312 317 316 314 313 311 307 303 301 298 294 289 287 284 281 276 264 258 256 252 250 250 249 247 245 239 243 227 231
265 0 277 251 292 357 281 270 280 287 296 280 276 269 228 229 246 275 294 307 314 315 315 315 314 311 306 302 301 300 293 289 286 283 280 279 271 259 257 254 251 248 248 250 249 249 240 232 236
136 214 248 259 284 306 254 278 283 297 290 275 259 225 220 237 270 296 306 316 317 320 318 317 313 309 304 302 302 302 302 294 287 284 283 280 275 262 254 253 250 245 245 245 242 239 237 242 225
122 133 271 284 309 341 298 292 289 281 265 248 211 200 217 257 277 296 316 321 324 322 322 322 318 314 308 303 302 299 297 293 292 290 288 288 278 266 254 252 249 244 244 244 236 235 237 235 227
219 179 239 249 329 283 321 295 325 337 271 238 214 214 231 286 311 318 324 327 328 328 326 324 320 316 311 304 300 296 292 291 292 291 293 294 288 271 259 252 249 245 239 241 234 227 230 230 222
301 174 317 302 40 295 31 284 300 302 290 229 218 224 250 292 312 322 329 332 335 333 332 328 323 318 312 306 297 294 287 285 290 294 291 289 287 277 260 251 244 243 234 235 233 228 227 228 219
210 18 353 88 93 37 339 60 273 331 281 251 234 235 258 298 316 323 328 331 333 337 333 329 325 321 313 305 296 296 292 288 290 291 293 289 285 281 263 248 238 239 230 233 234 230 225 227 225
18 56 40 55 88 23 258 117 276 235 217 287 269 236 263 299 318 323 329 328 331 333 331 332 329 325 317 308 299 294 294 290 288 290 290 285 292 281 263 242 237 236 227 231 237 231 231 229 232
61 49 335 352 7 227 312 322 249 261 251 231 251 254 270 297 315 324 325 325 329 332 334 333 331 325 321 312 302 298 292 288 286 287 288 291 286 278 259 232 234 221 221 233 236 234 229 232 232
65 142 148 241 277 274 352 238 250 235 282 272 258 261 274 294 321 316 320 323 327 330 333 332 331 326 322 314 307 301 295 284 285 287 285 285 288 271 252 228 225 228 231 223 231 238 234 232 236
255 56 164 98 89 23 245 288 288 296 288 260 255 261 270 288 320 313 314 322 325 327 333 332 330 325 323 317 310 305 296 290 288 286 277 282 278 253 242 224 224 220 219 228 234 237 238 238 239
135 155 52 11 324 291 282 278 239 291 274 282 265 259 267 289 313 317 316 321 323 328 334 334 332 327 324 320 315 308 301 292 288 287 273 277 280 250 238 224 216 215 218 233 240 236 243 237 236
116 12 52 123 158 197 293 255 215 237 238 259 277 285 269 298 312 314 318 319 324 328 338 336 335 331 327 324 320 312 305 299 292 286 282 272 267 255 223 208 222 236 236 240 243 250 242 242 244
164 185 156 138 253 231 194 269 221 230 249 271 279 289 288 303 313 313 314 321 329 334 341 340 338 335 334 329 324 322 315 313 302 294 285 277 264 247 227 231 227 237 234 235 241 249 251 243 242